Tracking 31027 objects as of 19-Jul-2025
HD Live streaming from Space Station
objects crossing your sky now

NOAA 16 DEB

Track NOAA 16 DEB now!
10-day predictions


NORAD ID: 42401
Int'l Code: 2000-055SV
Perigee: 688.8 km
Apogee: 757.2 km
Inclination: 99.0 °
Period: 99.1 minutes
Semi major axis: 7093 km
RCS: Unknown
Launch date: September 21, 2000
Source: United States (US)
Launch site: AIR FORCE WESTERN TEST RANGE (AFWTR)

Note: This is SATELLITE DEBRIS
Your satellite tracking list
ATLAS 5 CENTAUR DEB
Track 1 satellite(s)




NASA's NSSDC Master Catalog

Two Line Element Set (TLE):
1 42401U 00055SV  25199.54021466  .00005217  00000-0  12571-2 0  9998
2 42401  98.9748  47.3161 0048167 338.5771  21.3406 14.53002990489864
Source of the keplerian elements: AFSPC